EW4115 Weather Reports


time (UTC)temp
F
wind
direction
speed
knots
gust
knots
rain 1hr
in
rain 24hr
in
rain mn
in
humidity
%
barometer
mb
20260906093147 96 322 4.3 8.7 0.00 0.00 0.00 27 1016.1
20260906091614 96 313 0.9 4.3 0.00 0.00 0.00 27 1016.1
20260906090033 95 283 1.7 3.5 0.00 0.00 0.00 28 1016.2
20260906084623 95 290 1.7 5.2 0.00 0.00 0.00 29 1016.2
20260906083047 94 298 0.0 7.0 0.00 0.00 0.00 29 1016.2
20260906081529 93 266 1.7 6.1 0.00 0.00 0.00 29 1016.3
20260906080124 93 281 1.7 5.2 0.00 0.00 0.00 30 1016.4
20260906074548 92 275 0.9 1.7 0.00 0.00 0.00 31 1016.3
20260906073010 92 270 0.9 5.2 0.00 0.00 0.00 32 1016.2
20260906071600 91 345 0.0 2.6 0.00 0.00 0.00 32 1016.2
20260906070024 89 345 0.0 1.7 0.00 0.00 0.00 34 1016.0
20260906064614 88 345 0.0 0.9 0.00 0.00 0.00 34 1015.9
20260906063037 86 345 0.0 0.9 0.00 0.00 0.00 40 1015.8
20260906061630 84 345 0.0 0.9 0.00 0.00 0.00 41 1015.6
20260906060055 82 345 0.0 1.7 0.00 0.00 0.00 42 1015.6
20260906054551 80 345 0.0 0.0 0.00 0.00 0.00 51 1015.5
20260906053029 78 345 0.0 0.0 0.00 0.00 0.00 53 1015.4
20260906051529 75 345 0.0 0.0 0.00 0.00 0.00 55 1015.5
20260906050027 74 345 0.0 0.0 0.00 0.00 0.00 56 1015.5
20260906044512 72 345 0.0 0.0 0.00 0.00 0.00 57 1015.4
20260906043007 70 345 0.0 0.0 0.00 0.00 0.00 57 1015.3
20260906041505 70 345 0.0 0.0 0.00 0.00 0.00 55 1015.2
20260906040004 70 345 0.0 0.0 0.00 0.00 0.00 56 1015.0
20260906034503 70 345 0.0 0.0 0.00 0.00 0.00 57 1015.0
20260906033001 70 345 0.0 0.0 0.00 0.00 0.00 57 1014.9
20260906031614 71 345 0.0 0.0 0.00 0.00 0.00 56 1014.9
20260906030059 71 345 0.0 0.0 0.00 0.00 0.00 55 1014.8
20260906024606 71 345 0.0 0.0 0.00 0.00 0.00 56 1014.5
20260906023102 71 345 0.0 0.0 0.00 0.00 0.00 55 1014.3
20260906021601 71 345 0.0 0.0 0.00 0.00 0.00 55 1014.5
20260906020055 71 345 0.0 0.0 0.00 0.00 0.00 55 1014.6
20260906014555 71 345 0.0 0.0 0.00 0.00 0.00 55 1014.6
20260906013052 72 345 0.0 0.0 0.00 0.00 0.00 54 1014.6
20260906011551 72 345 0.0 0.0 0.00 0.00 0.00 54 1014.7
20260906010052 72 345 0.0 0.0 0.00 0.00 0.00 52 1014.7
20260906004548 72 345 0.0 0.0 0.00 0.00 0.00 52 1014.7
20260906003047 73 345 0.0 0.0 0.00 0.00 0.00 52 1014.7
20260906001545 73 345 0.0 0.9 0.00 0.00 0.00 51 1014.8
20260906000054 73 345 0.0 0.9 0.00 0.00 0.00 50 1014.8
20260905234549 73 345 0.0 0.0 0.00 0.00 0.00 50 1014.9
20260905233038 74 345 0.0 0.9 0.00 0.00 0.00 49 1015.1
20260905231538 74 345 0.0 0.9 0.00 0.00 0.00 48 1015.1
20260905230036 74 345 0.0 0.0 0.00 0.00 0.00 48 1015.2
20260905224534 74 345 0.0 0.0 0.00 0.00 0.00 46 1015.4
20260905223033 75 345 0.0 0.0 0.00 0.00 0.00 47 1015.4
20260905221532 75 345 0.0 0.0 0.00 0.00 0.00 46 1015.4
20260905220033 75 345 0.0 0.0 0.00 0.00 0.00 46 1015.4
20260905214529 75 345 0.0 0.0 0.00 0.00 0.00 46 1015.4
20260905213027 76 345 0.0 0.0 0.00 0.00 0.00 46 1015.5
20260905211551 76 345 0.0 1.7 0.00 0.00 0.00 45 1015.4
20260905210022 77 345 0.0 1.7 0.00 0.00 0.00 45 1015.6
20260905204521 78 345 0.0 0.9 0.00 0.00 0.00 44 1015.5
20260905203021 79 345 0.0 0.9 0.00 0.00 0.00 42 1015.4
20260905201530 79 345 0.0 0.9 0.00 0.00 0.00 41 1015.4
20260905200021 80 345 0.0 0.9 0.00 0.00 0.00 39 1015.4
20260905194520 81 345 0.0 2.6 0.00 0.00 0.00 38 1015.5
20260905193019 81 350 0.0 1.7 0.00 0.00 0.00 37 1015.4
20260905191519 81 350 0.0 2.6 0.00 0.00 0.00 36 1015.4
20260905190018 81 54 0.0 2.6 0.00 0.00 0.00 37 1015.5
20260905184518 82 54 0.0 0.9 0.00 0.00 0.00 37 1015.6
20260905183028 82 54 0.0 2.6 0.00 0.00 0.00 37 1015.4
20260905181517 82 54 0.0 1.7 0.00 0.00 0.00 37 1015.3
20260905180017 83 54 0.0 1.7 0.00 0.00 0.00 36 1015.1
20260905174517 83 54 0.0 3.5 0.00 0.00 0.00 36 1015.1
20260905173032 84 355 0.9 3.5 0.00 0.00 0.00 35 1014.9
20260905171514 84 15 0.9 3.5 0.00 0.00 0.00 35 1014.7
20260905170014 85 355 0.9 7.0 0.00 0.00 0.00 35 1014.7
20260905164513 85 9 0.9 4.3 0.00 0.00 0.00 35 1014.7
20260905163015 86 272 0.9 3.5 0.00 0.00 0.00 35 1014.8
20260905161512 87 324 1.7 7.0 0.00 0.00 0.00 33 1014.8
20260905160011 88 36 0.9 5.2 0.00 0.00 0.00 31 1014.7
20260905154511 88 335 2.6 12.2 0.00 0.00 0.00 30 1014.8
20260905153010 89 345 2.6 7.0 0.00 0.00 0.00 29 1014.8
20260905151509 89 292 2.6 9.6 0.00 0.00 0.00 30 1014.8
20260905150009 89 311 7.0 15.6 0.00 0.00 0.00 30 1014.9
20260905144508 90 355 3.5 9.6 0.00 0.00 0.00 30 1014.7
20260905143006 90 321 4.3 10.4 0.00 0.00 0.00 30 1014.7
20260905141520 90 333 3.5 11.3 0.00 0.00 0.00 32 1014.8
20260905140006 90 328 2.6 8.7 0.00 0.00 0.00 32 1014.7
20260905134508 90 62 2.6 10.4 0.00 0.00 0.00 32 1014.8
20260905133005 90 350 2.6 8.7 0.00 0.00 0.00 32 1014.9
20260905131505 91 118 1.7 7.8 0.00 0.00 0.00 31 1014.9
20260905130002 91 50 2.6 10.4 0.00 0.00 0.00 31 1015.0
20260905124558 91 317 3.5 8.7 0.00 0.00 0.00 31 1015.0
20260905123053 90 78 2.6 10.4 0.00 0.00 0.00 32 1015.1
20260905121550 90 50 2.6 10.4 0.00 0.00 0.00 32 1015.2
20260905120051 90 350 1.7 11.3 0.00 0.00 0.00 33 1015.3
20260905114550 90 53 2.6 9.6 0.00 0.00 0.00 33 1015.5
20260905113048 90 14 2.6 10.4 0.00 0.00 0.00 34 1015.5
20260905111547 89 4 3.5 11.3 0.00 0.00 0.00 34 1015.5
20260905110104 89 6 3.5 13.0 0.00 0.00 0.00 34 1015.5
20260905104545 89 14 1.7 11.3 0.00 0.00 0.00 34 1015.6
20260905103048 89 355 3.5 12.2 0.00 0.00 0.00 33 1015.6
20260905101549 89 324 4.3 12.2 0.00 0.00 0.00 32 1015.6
20260905100035 89 322 3.5 13.9 0.00 0.00 0.00 33 1015.7
20260905094532 88 339 4.3 13.9 0.00 0.00 0.00 33 1015.7